Location: La Brionne
(46.1728°N, 1.7849°E)
Time: 18:40:22
(UTC+00:00)

USA 215 - Pass Details

Date: 25 October 2021
Orbit: 1099 x 1109 km, 123.0° (Epoch: 20 November)

Event Time Altitude Azimuth Distance (km) Brightness Sun altitude
Exits shadow 20:11:30 35° 3° (N) 1,718 4.3 -35.3°
Maximum altitude 20:11:55 35° 355° (N) 1,709 4.3 -35.3°
Drops below altitude 10° 20:17:41 10° 293° (WNW) 2,965 6.3 -36.3°
Sets 20:20:23 0° 285° (WNW) 3,924 7.1 -36.7°
